GFSGBSN_prec_precacc_327.txt.gz
Total_Precipitation_Accumulation
0.51 0.33 0.29 0.31 0.31 0.27 0.25 0.23 0.18 0.14 0.10 0.07 0.06 0.05 0.04 0.03 0.02 0.02 0.02 0.01 0.00 0.01 0.01 0.00 0.01 0.02 0.01 0.00 0.00 0.00 0.00 0.00 0.00 0.00 0.00 0.00 0.00 0.00 0.00 0.00 0.00 0.00 0.00 0.00 0.00 0.00 0.00
1.51 1.27 0.79 0.51 0.35 0.26 0.24 0.25 0.28 0.26 0.24 0.19 0.15 0.11 0.08 0.07 0.06 0.04 0.02 0.00 0.01 0.01 0.01 0.01 0.01 0.03 0.01 0.00 0.00 0.00 0.00 0.00 0.00 0.00 0.00 0.00 0.00 0.00 0.00 0.00 0.00 0.00 0.00 0.00 0.00 0.00 0.00
0.75 0.86 1.09 1.09 0.89 0.74 0.57 0.35 0.28 0.26 0.26 0.25 0.21 0.18 0.18 0.16 0.14 0.11 0.05 0.01 0.00 0.01 0.01 0.01 0.02 0.04 0.01 0.00 0.00 0.00 0.00 0.00 0.00 0.00 0.00 0.00 0.00 0.00 0.00 0.00 0.00 0.00 0.00 0.00 0.00 0.00 0.00
0.78 0.63 0.57 0.63 0.86 0.95 0.92 0.80 0.66 0.50 0.39 0.40 0.40 0.37 0.31 0.26 0.17 0.09 0.04 0.01 0.00 0.01 0.01 0.01 0.02 0.03 0.00 0.00 0.00 0.00 0.00 0.00 0.00 0.00 0.00 0.00 0.00 0.00 0.00 0.00 0.00 0.00 0.00 0.00 0.00 0.00 0.00
0.71 0.75 0.67 0.65 0.69 0.70 0.67 0.63 0.55 0.47 0.47 0.42 0.36 0.29 0.25 0.19 0.17 0.16 0.11 0.03 0.00 0.01 0.01 0.01 0.01 0.02 0.00 0.00 0.00 0.00 0.00 0.00 0.00 0.00 0.00 0.00 0.00 0.00 0.00 0.00 0.00 0.00 0.00 0.00 0.00 0.00 0.00
0.66 0.55 0.50 0.47 0.47 0.43 0.37 0.30 0.23 0.21 0.21 0.21 0.19 0.18 0.15 0.13 0.14 0.16 0.11 0.07 0.02 0.00 0.00 0.00 0.02 0.01 0.00 0.00 0.00 0.00 0.00 0.01 0.02 0.00 0.00 0.00 0.00 0.00 0.00 0.00 0.00 0.00 0.00 0.00 0.00 0.00 0.00
1.09 0.65 0.51 0.38 0.34 0.30 0.26 0.27 0.30 0.26 0.21 0.18 0.14 0.11 0.12 0.13 0.16 0.16 0.10 0.06 0.07 0.09 0.04 0.01 0.01 0.01 0.00 0.00 0.00 0.00 0.00 0.00 0.01 0.01 0.01 0.03 0.00 0.00 0.01 0.00 0.00 0.00 0.00 0.00 0.00 0.00 0.00
1.20 0.84 0.59 0.50 0.41 0.43 0.42 0.39 0.33 0.26 0.22 0.18 0.16 0.14 0.14 0.12 0.16 0.16 0.06 0.05 0.03 0.11 0.16 0.03 0.01 0.00 0.00 0.00 0.00 0.00 0.00 0.01 0.02 0.04 0.05 0.04 0.04 0.00 0.00 0.00 0.00 0.02 0.02 0.00 0.00 0.00 0.00
1.47 1.05 0.66 0.55 0.48 0.40 0.40 0.43 0.40 0.38 0.32 0.23 0.18 0.17 0.18 0.17 0.20 0.12 0.02 0.02 0.01 0.07 0.22 0.03 0.00 0.00 0.00 0.01 0.00 0.00 0.00 0.00 0.05 0.11 0.06 0.09 0.03 0.00 0.00 0.00 0.01 0.01 0.01 0.00 0.00 0.00 0.02
1.60 1.40 0.94 0.62 0.55 0.50 0.44 0.43 0.40 0.37 0.33 0.30 0.26 0.25 0.28 0.42 0.36 0.10 0.05 0.02 0.07 0.25 0.43 0.04 0.02 0.03 0.04 0.07 0.01 0.00 0.00 0.00 0.07 0.09 0.09 0.21 0.04 0.02 0.03 0.02 0.01 0.06 0.00 0.00 0.02 0.08 0.10
1.72 1.36 1.04 0.69 0.59 0.59 0.51 0.45 0.37 0.38 0.41 0.45 0.39 0.37 0.49 0.64 0.44 0.26 0.07 0.02 0.23 0.48 0.81 0.09 0.11 0.05 0.07 0.05 0.01 0.06 0.00 0.00 0.02 0.07 0.20 0.33 0.21 0.24 0.22 0.05 0.02 0.07 0.00 0.01 0.01 0.02 0.08
2.47 1.58 1.22 0.90 0.64 0.57 0.54 0.50 0.44 0.39 0.36 0.46 0.55 0.50 0.66 0.74 0.45 0.10 0.03 0.18 0.54 1.21 0.82 0.07 0.14 0.10 0.14 0.09 0.01 0.02 0.01 0.00 0.00 0.05 0.06 0.10 0.03 0.06 0.05 0.00 0.01 0.02 0.02 0.03 0.05 0.09 0.22
3.85 2.86 2.05 1.40 0.98 0.86 0.67 0.58 0.53 0.48 0.44 0.48 0.70 0.81 0.89 0.58 0.46 0.22 0.40 0.94 1.65 1.38 0.28 0.05 0.08 0.25 0.16 0.20 0.22 0.05 0.02 0.00 0.00 0.05 0.07 0.07 0.06 0.05 0.03 0.12 0.05 0.05 0.04 0.14 0.31 0.24 0.12
5.54 4.23 3.08 2.50 1.69 1.19 1.06 0.83 0.76 0.78 0.73 0.77 0.93 1.24 1.34 0.80 0.36 0.46 1.45 2.70 2.19 0.73 0.13 0.01 0.11 0.23 0.24 0.17 0.24 0.05 0.02 0.02 0.02 0.03 0.06 0.06 0.19 0.07 0.05 0.27 0.12 0.05 0.05 0.10 0.37 0.22 0.19
6.41 5.79 4.54 3.57 2.79 2.20 1.72 1.31 1.26 1.28 1.54 1.80 2.53 2.62 2.20 1.07 0.62 1.29 3.07 3.74 1.68 0.43 0.03 0.00 0.01 0.10 0.11 0.11 0.45 0.54 0.44 0.13 0.10 0.07 0.22 0.16 0.19 0.08 0.04 0.05 0.07 0.09 0.08 0.05 0.23 0.29 0.39
5.75 5.47 5.59 5.17 3.75 2.82 2.53 2.15 1.76 1.99 2.42 3.44 4.66 4.42 2.46 0.78 1.21 3.27 5.04 2.90 0.64 0.06 0.01 0.01 0.02 0.02 0.13 0.08 0.23 0.85 0.41 0.17 0.04 0.02 0.11 0.21 0.26 0.10 0.12 0.08 0.05 0.04 0.04 0.11 0.29 0.79 0.62
4.70 4.74 4.91 5.12 4.99 3.74 3.10 2.73 2.62 2.78 3.58 5.34 8.42 7.90 3.55 1.29 3.64 6.71 5.12 1.50 0.30 0.01 0.03 0.06 0.07 0.08 0.06 0.07 0.14 0.37 0.44 0.40 0.09 0.05 0.06 0.13 0.30 0.18 0.18 0.26 0.06 0.04 0.08 0.14 0.25 0.37 0.71
4.01 3.90 4.13 4.31 4.63 4.22 4.19 3.36 3.12 3.74 4.80 8.61 10.90 8.58 4.45 2.66 7.42 6.65 2.57 0.59 0.13 0.03 0.03 0.07 0.05 0.08 0.20 0.21 0.14 0.13 0.22 0.34 0.23 0.25 0.11 0.10 0.21 0.17 0.04 0.10 0.04 0.05 0.09 0.14 0.47 0.58 0.67
3.81 3.84 3.59 3.42 3.89 4.05 3.95 4.92 4.35 4.72 6.25 7.94 10.16 8.23 7.54 4.86 5.46 3.67 1.26 0.42 0.16 0.10 0.05 0.08 0.10 0.08 0.14 0.20 0.28 0.25 0.16 0.14 0.17 0.22 0.30 0.18 0.47 0.61 0.36 0.17 0.11 0.13 0.06 0.13 0.28 0.36 0.68
3.71 3.50 3.42 3.15 3.31 3.78 3.77 4.47 5.16 5.12 6.13 8.74 10.83 10.43 11.72 10.51 4.02 1.87 0.86 0.64 0.38 0.13 0.12 0.10 0.12 0.12 0.16 0.20 0.16 0.31 0.27 0.18 0.07 0.13 0.22 0.30 0.45 0.61 0.83 0.63 0.54 0.29 0.08 0.07 0.17 0.60 0.83
3.47 3.29 3.28 2.94 3.07 3.41 3.62 4.01 4.92 5.17 6.47 10.98 13.74 9.58 6.15 6.67 4.11 1.45 0.74 0.62 0.46 0.39 0.24 0.20 0.31 0.20 0.14 0.38 0.43 0.46 0.30 0.37 0.26 0.21 0.35 0.57 0.58 0.23 0.14 0.17 0.66 0.51 0.18 0.15 0.29 0.22 0.50
3.08 3.06 3.11 2.82 2.83 3.48 3.81 3.92 4.71 5.62 8.34 13.61 13.45 7.35 4.15 2.37 1.45 1.45 1.29 0.84 0.48 0.33 0.45 0.51 0.41 0.24 0.32 0.60 0.43 0.42 0.52 0.77 0.57 0.45 0.60 0.91 0.91 0.32 0.17 0.09 0.42 0.45 0.15 0.11 0.14 0.17 0.33
2.97 2.92 3.09 2.68 2.41 2.93 3.50 3.84 4.46 6.03 10.60 15.42 10.64 4.79 3.15 2.64 1.77 2.31 2.04 0.77 0.40 0.40 0.65 0.47 0.42 0.55 0.80 0.50 0.36 0.59 0.75 0.87 0.67 0.51 0.73 1.03 1.29 1.43 1.02 0.20 0.83 1.38 0.77 0.50 0.36 0.45 0.31
2.53 2.83 2.94 2.69 2.57 2.63 3.02 3.19 3.75 5.63 9.53 10.23 6.59 3.32 4.05 3.96 1.97 1.55 0.68 0.40 0.37 0.49 0.78 0.79 0.68 0.89 0.76 0.42 0.72 1.22 1.39 1.11 0.78 0.58 0.45 0.94 1.24 2.00 1.77 1.22 2.77 1.33 0.65 0.68 0.89 0.67 0.78
2.48 2.54 2.86 2.57 2.56 2.67 3.01 3.24 3.58 4.31 6.89 8.92 6.24 4.21 4.40 3.89 2.09 1.39 0.96 0.78 0.79 0.90 1.34 1.58 1.19 0.86 0.75 1.30 2.82 3.42 2.56 1.91 1.21 0.67 0.44 0.42 0.98 2.71 3.02 2.38 1.50 0.46 0.25 0.30 0.52 0.46 0.35
2.44 2.52 2.87 2.64 2.52 2.47 2.78 3.14 3.19 3.39 4.71 7.60 7.62 5.07 5.58 5.23 3.04 1.05 0.80 0.80 1.14 1.40 1.60 1.60 1.29 1.02 1.32 2.52 4.10 4.32 2.45 1.27 0.75 0.59 0.23 0.33 0.74 2.36 3.70 3.16 1.52 0.54 0.32 0.14 0.39 0.79 0.43
2.42 2.46 2.65 2.70 2.59 2.56 2.69 2.85 2.66 2.84 3.84 5.36 6.35 4.76 7.16 6.95 3.08 1.23 1.09 0.94 0.86 1.34 1.87 1.60 1.60 2.14 2.45 3.82 4.48 3.37 2.04 0.86 0.81 0.87 0.71 0.70 1.27 2.13 2.16 3.05 1.59 0.20 0.23 0.34 1.30 1.40 0.73
2.37 2.36 2.31 2.34 2.35 2.56 2.77 2.83 2.72 2.59 3.57 4.74 5.07 3.68 6.26 6.06 3.35 1.73 1.20 1.04 0.87 1.29 2.24 2.25 2.37 2.72 3.26 4.17 4.74 3.70 2.29 1.25 0.80 0.68 1.01 1.08 1.51 1.64 1.63 2.38 1.80 0.24 0.34 0.99 1.68 1.01 0.85
2.32 2.38 2.33 2.25 2.19 2.22 2.67 2.75 2.86 2.79 3.67 4.42 5.04 3.82 4.77 6.22 4.32 1.96 1.41 1.04 0.97 1.10 1.78 2.57 2.68 2.12 2.26 3.02 3.42 2.97 2.59 1.83 1.21 1.13 1.01 1.38 1.12 1.44 1.30 1.25 0.68 0.50 0.57 0.45 0.27 0.23 0.23

GFSGBSN_prec_precacc_333.txt.gz
Total_Precipitation_Accumulation
0.51 0.33 0.29 0.31 0.31 0.27 0.25 0.23 0.18 0.14 0.10 0.07 0.06 0.05 0.04 0.03 0.02 0.02 0.02 0.01 0.00 0.01 0.01 0.00 0.01 0.02 0.01 0.00 0.00 0.00 0.00 0.00 0.00 0.00 0.00 0.00 0.00 0.00 0.00 0.00 0.00 0.00 0.00 0.00 0.00 0.00 0.00
1.51 1.27 0.79 0.51 0.35 0.26 0.24 0.25 0.28 0.26 0.24 0.19 0.15 0.11 0.08 0.07 0.06 0.04 0.02 0.00 0.01 0.01 0.01 0.01 0.01 0.03 0.01 0.00 0.00 0.00 0.00 0.00 0.00 0.00 0.00 0.00 0.00 0.00 0.00 0.00 0.00 0.00 0.00 0.00 0.00 0.00 0.00
0.75 0.86 1.10 1.09 0.89 0.74 0.57 0.35 0.28 0.26 0.26 0.25 0.21 0.18 0.18 0.16 0.14 0.11 0.05 0.01 0.00 0.01 0.01 0.01 0.02 0.04 0.01 0.00 0.00 0.00 0.00 0.00 0.00 0.00 0.00 0.00 0.00 0.00 0.00 0.00 0.00 0.00 0.00 0.00 0.00 0.00 0.00
0.78 0.63 0.57 0.63 0.86 0.95 0.92 0.80 0.66 0.50 0.39 0.40 0.40 0.37 0.31 0.26 0.17 0.09 0.04 0.01 0.00 0.01 0.01 0.01 0.02 0.03 0.00 0.00 0.00 0.00 0.00 0.00 0.00 0.00 0.00 0.00 0.00 0.00 0.00 0.00 0.00 0.00 0.00 0.00 0.00 0.00 0.00
0.71 0.75 0.67 0.65 0.69 0.70 0.67 0.63 0.55 0.47 0.47 0.42 0.36 0.29 0.25 0.19 0.17 0.16 0.11 0.03 0.00 0.01 0.01 0.01 0.01 0.02 0.00 0.00 0.00 0.00 0.00 0.00 0.00 0.00 0.00 0.00 0.00 0.00 0.00 0.00 0.00 0.00 0.00 0.00 0.00 0.00 0.00
0.66 0.55 0.50 0.48 0.47 0.43 0.37 0.30 0.23 0.21 0.21 0.21 0.19 0.18 0.15 0.13 0.14 0.16 0.11 0.07 0.02 0.00 0.00 0.00 0.02 0.01 0.00 0.00 0.00 0.00 0.00 0.01 0.02 0.00 0.00 0.00 0.00 0.00 0.00 0.00 0.00 0.00 0.00 0.00 0.00 0.00 0.00
1.09 0.65 0.51 0.38 0.34 0.30 0.26 0.27 0.30 0.26 0.21 0.18 0.14 0.11 0.12 0.13 0.16 0.16 0.10 0.06 0.07 0.09 0.04 0.01 0.01 0.01 0.00 0.00 0.00 0.00 0.00 0.00 0.01 0.01 0.01 0.03 0.00 0.00 0.01 0.00 0.00 0.00 0.00 0.00 0.00 0.00 0.00
1.20 0.84 0.59 0.50 0.41 0.43 0.42 0.39 0.33 0.26 0.22 0.18 0.16 0.14 0.14 0.12 0.16 0.16 0.06 0.05 0.03 0.11 0.16 0.03 0.01 0.00 0.00 0.00 0.00 0.00 0.00 0.01 0.02 0.04 0.05 0.04 0.04 0.00 0.00 0.00 0.00 0.02 0.02 0.00 0.00 0.00 0.00
1.47 1.05 0.66 0.55 0.48 0.40 0.40 0.43 0.40 0.38 0.32 0.23 0.18 0.17 0.18 0.17 0.20 0.12 0.02 0.02 0.01 0.07 0.22 0.03 0.00 0.00 0.00 0.01 0.00 0.00 0.00 0.00 0.05 0.11 0.06 0.09 0.03 0.00 0.00 0.00 0.01 0.01 0.01 0.00 0.00 0.00 0.02
1.61 1.40 0.94 0.62 0.55 0.50 0.44 0.43 0.40 0.37 0.33 0.30 0.26 0.25 0.28 0.42 0.36 0.10 0.05 0.02 0.07 0.25 0.43 0.04 0.02 0.03 0.04 0.07 0.01 0.00 0.00 0.00 0.07 0.09 0.09 0.21 0.04 0.02 0.03 0.02 0.01 0.06 0.00 0.00 0.02 0.08 0.10
1.72 1.36 1.04 0.69 0.59 0.59 0.51 0.45 0.37 0.38 0.41 0.45 0.39 0.37 0.49 0.64 0.44 0.26 0.07 0.02 0.23 0.48 0.81 0.09 0.11 0.05 0.07 0.05 0.01 0.06 0.00 0.00 0.02 0.07 0.20 0.33 0.21 0.24 0.22 0.05 0.02 0.07 0.00 0.01 0.01 0.02 0.08
2.47 1.58 1.22 0.90 0.64 0.57 0.54 0.50 0.44 0.39 0.36 0.46 0.55 0.50 0.66 0.74 0.45 0.10 0.03 0.18 0.54 1.21 0.82 0.07 0.14 0.10 0.14 0.09 0.01 0.02 0.01 0.00 0.00 0.05 0.06 0.10 0.03 0.06 0.05 0.00 0.01 0.02 0.02 0.03 0.05 0.09 0.22
3.85 2.86 2.05 1.40 0.98 0.86 0.67 0.59 0.54 0.49 0.44 0.48 0.70 0.81 0.89 0.58 0.46 0.22 0.40 0.94 1.65 1.38 0.28 0.05 0.08 0.25 0.16 0.20 0.22 0.05 0.02 0.00 0.00 0.05 0.07 0.07 0.06 0.05 0.03 0.12 0.05 0.05 0.04 0.14 0.31 0.24 0.12
5.54 4.23 3.08 2.50 1.69 1.19 1.06 0.83 0.76 0.79 0.73 0.77 0.93 1.24 1.34 0.80 0.36 0.46 1.45 2.70 2.19 0.73 0.13 0.01 0.11 0.23 0.24 0.17 0.24 0.05 0.02 0.02 0.02 0.03 0.06 0.06 0.19 0.07 0.05 0.27 0.12 0.05 0.05 0.10 0.37 0.22 0.19
6.41 5.79 4.54 3.57 2.79 2.20 1.72 1.31 1.26 1.28 1.54 1.81 2.54 2.62 2.20 1.07 0.62 1.29 3.07 3.74 1.68 0.43 0.03 0.00 0.01 0.10 0.11 0.11 0.45 0.54 0.44 0.13 0.10 0.07 0.22 0.16 0.19 0.08 0.04 0.05 0.07 0.09 0.08 0.05 0.23 0.29 0.39
5.75 5.47 5.59 5.17 3.75 2.82 2.53 2.16 1.77 1.99 2.43 3.45 4.66 4.42 2.46 0.78 1.21 3.27 5.04 2.90 0.64 0.06 0.01 0.01 0.02 0.02 0.13 0.08 0.23 0.85 0.41 0.17 0.04 0.02 0.11 0.21 0.26 0.10 0.12 0.08 0.05 0.04 0.04 0.11 0.29 0.79 0.62
4.70 4.74 4.91 5.12 4.99 3.74 3.10 2.73 2.62 2.78 3.59 5.35 8.42 7.90 3.55 1.29 3.64 6.71 5.12 1.50 0.30 0.01 0.03 0.06 0.07 0.08 0.06 0.07 0.14 0.37 0.44 0.40 0.09 0.05 0.06 0.13 0.30 0.18 0.18 0.26 0.06 0.04 0.08 0.14 0.25 0.37 0.71
4.01 3.90 4.13 4.31 4.63 4.22 4.19 3.36 3.12 3.74 4.80 8.61 10.90 8.58 4.45 2.66 7.42 6.65 2.57 0.59 0.13 0.03 0.03 0.07 0.05 0.08 0.20 0.21 0.14 0.13 0.22 0.34 0.23 0.25 0.11 0.10 0.21 0.17 0.04 0.10 0.04 0.05 0.09 0.14 0.47 0.58 0.67
3.81 3.84 3.60 3.42 3.89 4.05 3.96 4.92 4.35 4.72 6.25 7.94 10.16 8.23 7.54 4.86 5.46 3.67 1.26 0.42 0.16 0.10 0.05 0.08 0.10 0.08 0.14 0.20 0.28 0.25 0.16 0.14 0.17 0.22 0.30 0.18 0.47 0.61 0.36 0.17 0.11 0.13 0.06 0.13 0.28 0.36 0.68
3.71 3.50 3.42 3.15 3.31 3.78 3.78 4.47 5.16 5.12 6.13 8.74 10.83 10.43 11.72 10.51 4.02 1.87 0.86 0.64 0.38 0.13 0.12 0.10 0.12 0.12 0.16 0.20 0.16 0.31 0.27 0.18 0.07 0.13 0.22 0.30 0.45 0.61 0.83 0.63 0.54 0.29 0.08 0.07 0.17 0.60 0.83
3.47 3.29 3.28 2.94 3.07 3.41 3.63 4.01 4.92 5.17 6.47 10.98 13.74 9.58 6.15 6.67 4.11 1.45 0.74 0.62 0.46 0.39 0.24 0.20 0.31 0.20 0.14 0.38 0.43 0.46 0.30 0.37 0.26 0.21 0.35 0.57 0.58 0.23 0.14 0.17 0.66 0.51 0.18 0.15 0.29 0.22 0.50
3.08 3.06 3.11 2.82 2.83 3.48 3.81 3.92 4.71 5.63 8.34 13.62 13.45 7.35 4.15 2.37 1.45 1.45 1.29 0.84 0.48 0.33 0.45 0.51 0.41 0.24 0.32 0.60 0.43 0.42 0.52 0.77 0.57 0.45 0.60 0.91 0.91 0.32 0.17 0.09 0.42 0.45 0.15 0.11 0.14 0.17 0.33
2.97 2.92 3.09 2.68 2.41 2.93 3.50 3.84 4.46 6.03 10.60 15.42 10.64 4.79 3.15 2.64 1.77 2.31 2.04 0.77 0.40 0.40 0.65 0.47 0.42 0.55 0.80 0.50 0.36 0.59 0.75 0.87 0.67 0.51 0.73 1.03 1.29 1.43 1.02 0.20 0.83 1.38 0.77 0.50 0.36 0.45 0.31
2.53 2.83 2.94 2.69 2.57 2.63 3.03 3.19 3.75 5.63 9.53 10.23 6.59 3.32 4.05 3.96 1.97 1.55 0.68 0.40 0.37 0.49 0.78 0.79 0.68 0.89 0.76 0.42 0.72 1.22 1.39 1.11 0.78 0.58 0.45 0.94 1.24 2.00 1.77 1.22 2.77 1.33 0.65 0.68 0.89 0.67 0.78
2.48 2.54 2.86 2.57 2.57 2.68 3.01 3.24 3.58 4.31 6.89 8.92 6.24 4.22 4.40 3.89 2.09 1.39 0.96 0.78 0.79 0.90 1.34 1.58 1.19 0.86 0.75 1.30 2.82 3.42 2.56 1.91 1.21 0.67 0.44 0.42 0.98 2.71 3.02 2.38 1.50 0.46 0.25 0.30 0.52 0.46 0.35
2.44 2.52 2.87 2.64 2.54 2.47 2.79 3.14 3.19 3.39 4.71 7.60 7.62 5.07 5.59 5.23 3.04 1.05 0.80 0.80 1.14 1.40 1.60 1.60 1.29 1.02 1.32 2.52 4.10 4.32 2.45 1.27 0.75 0.59 0.23 0.33 0.74 2.36 3.70 3.16 1.52 0.54 0.32 0.14 0.39 0.79 0.43
2.42 2.46 2.65 2.70 2.60 2.58 2.69 2.85 2.66 2.84 3.84 5.36 6.35 4.76 7.16 6.96 3.08 1.23 1.09 0.94 0.86 1.34 1.87 1.60 1.60 2.14 2.45 3.82 4.48 3.37 2.04 0.86 0.81 0.87 0.71 0.70 1.27 2.13 2.16 3.05 1.59 0.20 0.23 0.34 1.30 1.40 0.73
2.37 2.37 2.31 2.34 2.36 2.58 2.77 2.83 2.72 2.59 3.57 4.74 5.08 3.68 6.26 6.06 3.35 1.73 1.20 1.04 0.87 1.29 2.24 2.25 2.37 2.72 3.26 4.17 4.74 3.70 2.29 1.25 0.80 0.68 1.01 1.08 1.51 1.64 1.63 2.39 1.81 0.24 0.34 0.99 1.68 1.01 0.85
2.32 2.38 2.34 2.26 2.19 2.24 2.67 2.75 2.86 2.79 3.67 4.43 5.06 3.82 4.77 6.23 4.33 1.96 1.41 1.04 0.97 1.10 1.78 2.57 2.68 2.12 2.26 3.02 3.42 2.97 2.59 1.83 1.21 1.13 1.01 1.38 1.12 1.44 1.30 1.25 0.69 0.50 0.57 0.45 0.27 0.23 0.23

GFSGBSN_prec_precacc_336.txt.gz
Total_Precipitation_Accumulation
0.51 0.33 0.29 0.31 0.31 0.27 0.25 0.23 0.18 0.14 0.10 0.07 0.06 0.05 0.04 0.03 0.02 0.02 0.02 0.01 0.00 0.01 0.01 0.00 0.01 0.02 0.01 0.00 0.00 0.00 0.00 0.00 0.00 0.00 0.00 0.00 0.00 0.00 0.00 0.00 0.00 0.00 0.00 0.00 0.00 0.00 0.00
1.51 1.27 0.79 0.51 0.35 0.26 0.24 0.25 0.28 0.26 0.24 0.19 0.15 0.11 0.08 0.07 0.06 0.04 0.02 0.00 0.01 0.01 0.01 0.01 0.01 0.03 0.01 0.00 0.00 0.00 0.00 0.00 0.00 0.00 0.00 0.00 0.00 0.00 0.00 0.00 0.00 0.00 0.00 0.00 0.00 0.00 0.00
0.75 0.86 1.10 1.09 0.89 0.74 0.57 0.35 0.28 0.26 0.26 0.25 0.21 0.18 0.18 0.16 0.14 0.11 0.05 0.01 0.00 0.01 0.01 0.01 0.02 0.04 0.01 0.00 0.00 0.00 0.00 0.00 0.00 0.00 0.00 0.00 0.00 0.00 0.00 0.00 0.00 0.00 0.00 0.00 0.00 0.00 0.00
0.78 0.63 0.57 0.63 0.86 0.95 0.92 0.80 0.66 0.50 0.39 0.40 0.40 0.37 0.31 0.26 0.17 0.09 0.04 0.01 0.00 0.01 0.01 0.01 0.02 0.03 0.00 0.00 0.00 0.00 0.00 0.00 0.00 0.00 0.00 0.00 0.00 0.00 0.00 0.00 0.00 0.00 0.00 0.00 0.00 0.00 0.00
0.71 0.75 0.67 0.65 0.69 0.70 0.67 0.63 0.55 0.47 0.47 0.42 0.36 0.29 0.25 0.19 0.17 0.16 0.11 0.03 0.00 0.01 0.01 0.01 0.01 0.02 0.00 0.00 0.00 0.00 0.00 0.00 0.00 0.00 0.00 0.00 0.00 0.00 0.00 0.00 0.00 0.00 0.00 0.00 0.00 0.00 0.00
0.66 0.55 0.50 0.48 0.47 0.43 0.37 0.30 0.23 0.21 0.21 0.21 0.19 0.18 0.15 0.13 0.14 0.16 0.11 0.07 0.02 0.00 0.00 0.00 0.02 0.01 0.00 0.00 0.00 0.00 0.00 0.01 0.02 0.00 0.00 0.00 0.00 0.00 0.00 0.00 0.00 0.00 0.00 0.00 0.00 0.00 0.00
1.09 0.65 0.51 0.38 0.34 0.30 0.26 0.27 0.30 0.26 0.21 0.18 0.14 0.11 0.12 0.13 0.16 0.16 0.10 0.06 0.07 0.09 0.04 0.01 0.01 0.01 0.00 0.00 0.00 0.00 0.00 0.00 0.01 0.01 0.01 0.03 0.00 0.00 0.01 0.00 0.00 0.00 0.00 0.00 0.00 0.00 0.00
1.20 0.84 0.59 0.50 0.41 0.43 0.42 0.39 0.33 0.26 0.22 0.18 0.16 0.14 0.14 0.12 0.16 0.16 0.06 0.05 0.03 0.11 0.16 0.03 0.01 0.00 0.00 0.00 0.00 0.00 0.00 0.01 0.02 0.04 0.05 0.04 0.04 0.00 0.00 0.00 0.00 0.02 0.02 0.00 0.00 0.00 0.00
1.47 1.05 0.66 0.55 0.48 0.40 0.40 0.43 0.40 0.38 0.32 0.23 0.18 0.17 0.18 0.17 0.20 0.12 0.02 0.02 0.01 0.07 0.22 0.03 0.00 0.00 0.00 0.01 0.00 0.00 0.00 0.00 0.05 0.11 0.06 0.09 0.03 0.00 0.00 0.00 0.01 0.01 0.01 0.00 0.00 0.00 0.02
1.61 1.40 0.94 0.62 0.55 0.50 0.44 0.43 0.40 0.37 0.33 0.30 0.26 0.25 0.28 0.42 0.36 0.10 0.05 0.02 0.07 0.25 0.43 0.04 0.02 0.03 0.04 0.07 0.01 0.00 0.00 0.00 0.07 0.09 0.09 0.21 0.04 0.02 0.03 0.02 0.01 0.06 0.00 0.00 0.02 0.08 0.10
1.72 1.36 1.04 0.69 0.59 0.59 0.51 0.45 0.37 0.38 0.41 0.45 0.39 0.37 0.49 0.64 0.44 0.26 0.07 0.02 0.23 0.48 0.81 0.09 0.11 0.05 0.07 0.05 0.01 0.06 0.00 0.00 0.02 0.07 0.20 0.33 0.21 0.24 0.22 0.05 0.02 0.07 0.00 0.01 0.01 0.02 0.08
2.47 1.58 1.22 0.90 0.64 0.57 0.54 0.50 0.44 0.39 0.36 0.46 0.55 0.50 0.66 0.74 0.45 0.10 0.03 0.18 0.54 1.21 0.82 0.07 0.14 0.10 0.14 0.09 0.01 0.02 0.01 0.00 0.00 0.05 0.06 0.10 0.03 0.06 0.05 0.00 0.01 0.02 0.02 0.03 0.05 0.09 0.22
3.85 2.86 2.05 1.40 0.98 0.86 0.67 0.59 0.54 0.49 0.44 0.48 0.70 0.81 0.89 0.58 0.46 0.22 0.40 0.94 1.65 1.38 0.28 0.05 0.08 0.25 0.16 0.20 0.22 0.05 0.02 0.00 0.00 0.05 0.07 0.07 0.06 0.05 0.03 0.12 0.05 0.05 0.04 0.14 0.31 0.24 0.12
5.54 4.23 3.08 2.50 1.69 1.19 1.06 0.83 0.76 0.79 0.73 0.77 0.93 1.25 1.34 0.80 0.36 0.46 1.45 2.70 2.19 0.73 0.13 0.01 0.11 0.23 0.24 0.17 0.24 0.05 0.02 0.02 0.02 0.03 0.06 0.06 0.19 0.07 0.05 0.27 0.12 0.05 0.05 0.10 0.37 0.22 0.19
6.41 5.79 4.54 3.57 2.79 2.20 1.72 1.31 1.26 1.28 1.54 1.81 2.54 2.62 2.20 1.07 0.62 1.29 3.07 3.74 1.68 0.43 0.03 0.00 0.01 0.10 0.11 0.11 0.45 0.54 0.44 0.13 0.10 0.07 0.22 0.16 0.19 0.08 0.04 0.05 0.07 0.09 0.08 0.05 0.23 0.29 0.39
5.75 5.47 5.59 5.17 3.75 2.82 2.53 2.16 1.77 1.99 2.43 3.45 4.66 4.42 2.46 0.78 1.21 3.27 5.04 2.90 0.64 0.06 0.01 0.01 0.02 0.02 0.13 0.08 0.23 0.85 0.41 0.17 0.04 0.02 0.11 0.21 0.26 0.10 0.12 0.08 0.05 0.04 0.04 0.11 0.29 0.79 0.62
4.70 4.74 4.91 5.12 4.99 3.74 3.10 2.73 2.62 2.78 3.59 5.35 8.42 7.90 3.55 1.29 3.64 6.71 5.12 1.50 0.30 0.01 0.03 0.06 0.07 0.08 0.06 0.07 0.14 0.37 0.44 0.40 0.09 0.05 0.06 0.13 0.30 0.18 0.18 0.26 0.06 0.04 0.08 0.14 0.25 0.37 0.71
4.01 3.90 4.13 4.31 4.63 4.22 4.19 3.36 3.12 3.74 4.80 8.61 10.90 8.58 4.45 2.66 7.42 6.65 2.57 0.59 0.13 0.03 0.03 0.07 0.05 0.08 0.20 0.21 0.14 0.13 0.22 0.34 0.23 0.25 0.11 0.10 0.21 0.17 0.04 0.10 0.04 0.05 0.09 0.14 0.47 0.58 0.67
3.81 3.84 3.60 3.42 3.89 4.05 3.96 4.92 4.35 4.72 6.25 7.94 10.16 8.23 7.54 4.86 5.46 3.67 1.26 0.42 0.16 0.10 0.05 0.08 0.10 0.08 0.14 0.20 0.28 0.25 0.16 0.14 0.17 0.22 0.30 0.18 0.47 0.61 0.36 0.17 0.11 0.13 0.06 0.13 0.28 0.36 0.68
3.71 3.50 3.42 3.15 3.31 3.78 3.78 4.47 5.16 5.12 6.13 8.74 10.83 10.43 11.72 10.51 4.02 1.87 0.86 0.64 0.38 0.13 0.12 0.10 0.12 0.12 0.16 0.20 0.16 0.31 0.27 0.18 0.07 0.13 0.22 0.30 0.45 0.61 0.83 0.63 0.54 0.29 0.08 0.07 0.17 0.60 0.83
3.47 3.29 3.28 2.94 3.07 3.41 3.63 4.01 4.92 5.17 6.47 10.98 13.74 9.58 6.15 6.67 4.11 1.45 0.74 0.62 0.46 0.39 0.24 0.20 0.31 0.20 0.14 0.38 0.43 0.46 0.30 0.37 0.26 0.21 0.35 0.57 0.58 0.23 0.14 0.17 0.66 0.51 0.18 0.15 0.29 0.22 0.50
3.08 3.06 3.11 2.82 2.83 3.48 3.81 3.92 4.72 5.63 8.35 13.62 13.45 7.35 4.15 2.37 1.45 1.45 1.29 0.84 0.48 0.33 0.45 0.51 0.41 0.24 0.32 0.60 0.43 0.42 0.52 0.77 0.57 0.45 0.60 0.91 0.91 0.32 0.17 0.09 0.42 0.45 0.15 0.11 0.14 0.17 0.33
2.97 2.92 3.09 2.68 2.41 2.93 3.50 3.84 4.47 6.04 10.60 15.42 10.64 4.79 3.15 2.64 1.77 2.31 2.04 0.77 0.40 0.40 0.65 0.47 0.42 0.55 0.80 0.50 0.36 0.59 0.75 0.87 0.67 0.51 0.73 1.03 1.29 1.43 1.02 0.20 0.83 1.38 0.77 0.50 0.36 0.45 0.31
2.53 2.83 2.94 2.69 2.57 2.63 3.03 3.19 3.76 5.63 9.53 10.23 6.59 3.32 4.05 3.96 1.97 1.55 0.68 0.40 0.37 0.49 0.78 0.79 0.68 0.89 0.76 0.42 0.72 1.22 1.39 1.11 0.78 0.58 0.45 0.94 1.24 2.00 1.77 1.22 2.77 1.33 0.65 0.68 0.89 0.67 0.78
2.48 2.54 2.86 2.57 2.57 2.68 3.01 3.24 3.58 4.31 6.89 8.92 6.24 4.22 4.40 3.89 2.09 1.39 0.96 0.78 0.79 0.90 1.34 1.58 1.19 0.86 0.75 1.30 2.82 3.42 2.56 1.91 1.21 0.67 0.44 0.42 0.98 2.71 3.02 2.38 1.50 0.46 0.25 0.30 0.52 0.46 0.35
2.44 2.52 2.87 2.64 2.54 2.47 2.79 3.15 3.19 3.39 4.71 7.60 7.62 5.07 5.59 5.23 3.04 1.05 0.80 0.80 1.14 1.40 1.60 1.60 1.29 1.02 1.32 2.52 4.10 4.32 2.45 1.27 0.75 0.59 0.23 0.33 0.74 2.36 3.70 3.16 1.52 0.54 0.32 0.14 0.39 0.79 0.43
2.42 2.46 2.65 2.70 2.60 2.58 2.69 2.86 2.66 2.84 3.84 5.36 6.35 4.76 7.16 6.96 3.08 1.23 1.09 0.94 0.86 1.34 1.87 1.60 1.60 2.14 2.45 3.82 4.48 3.37 2.04 0.86 0.81 0.87 0.71 0.70 1.27 2.13 2.16 3.05 1.59 0.20 0.23 0.34 1.30 1.40 0.73
2.37 2.37 2.31 2.34 2.36 2.58 2.77 2.84 2.73 2.60 3.57 4.74 5.08 3.68 6.26 6.06 3.35 1.73 1.20 1.04 0.87 1.29 2.24 2.25 2.37 2.72 3.26 4.17 4.74 3.70 2.29 1.25 0.80 0.68 1.01 1.08 1.51 1.64 1.63 2.39 1.81 0.24 0.34 0.99 1.68 1.01 0.85
2.32 2.38 2.34 2.26 2.19 2.24 2.67 2.76 2.86 2.79 3.67 4.43 5.06 3.82 4.77 6.23 4.33 1.96 1.41 1.04 0.97 1.10 1.78 2.57 2.68 2.12 2.26 3.02 3.42 2.97 2.59 1.83 1.21 1.13 1.01 1.38 1.12 1.44 1.30 1.25 0.69 0.50 0.57 0.45 0.27 0.23 0.23

GFSGBSN_prec_precacc_342.txt.gz
Total_Precipitation_Accumulation
0.51 0.33 0.29 0.31 0.31 0.27 0.25 0.23 0.18 0.14 0.10 0.07 0.06 0.05 0.04 0.03 0.02 0.02 0.02 0.01 0.00 0.01 0.01 0.00 0.01 0.02 0.01 0.00 0.00 0.00 0.00 0.00 0.00 0.00 0.00 0.00 0.00 0.00 0.00 0.00 0.00 0.00 0.00 0.00 0.00 0.00 0.00
1.51 1.27 0.79 0.51 0.35 0.26 0.24 0.25 0.28 0.26 0.24 0.19 0.15 0.11 0.08 0.07 0.06 0.04 0.02 0.00 0.01 0.01 0.01 0.01 0.01 0.03 0.01 0.00 0.00 0.00 0.00 0.00 0.00 0.00 0.00 0.00 0.00 0.00 0.00 0.00 0.00 0.00 0.00 0.00 0.00 0.00 0.00
0.75 0.86 1.10 1.10 0.89 0.74 0.57 0.35 0.28 0.26 0.26 0.25 0.21 0.18 0.18 0.16 0.14 0.11 0.05 0.01 0.00 0.01 0.01 0.01 0.02 0.04 0.01 0.00 0.00 0.00 0.00 0.00 0.00 0.00 0.00 0.00 0.00 0.00 0.00 0.00 0.00 0.00 0.00 0.00 0.00 0.00 0.00
0.78 0.63 0.57 0.63 0.86 0.95 0.92 0.80 0.66 0.50 0.39 0.40 0.40 0.37 0.31 0.26 0.17 0.09 0.04 0.01 0.00 0.01 0.01 0.01 0.02 0.03 0.00 0.00 0.00 0.00 0.00 0.00 0.00 0.00 0.00 0.00 0.00 0.00 0.00 0.00 0.00 0.00 0.00 0.00 0.00 0.00 0.00
0.71 0.75 0.67 0.65 0.69 0.70 0.67 0.63 0.55 0.47 0.47 0.42 0.36 0.29 0.25 0.19 0.17 0.16 0.11 0.03 0.00 0.01 0.01 0.01 0.01 0.02 0.00 0.00 0.00 0.00 0.00 0.00 0.00 0.00 0.00 0.00 0.00 0.00 0.00 0.00 0.00 0.00 0.00 0.00 0.00 0.00 0.00
0.66 0.55 0.50 0.48 0.47 0.43 0.37 0.30 0.23 0.21 0.21 0.21 0.19 0.18 0.15 0.13 0.14 0.16 0.11 0.07 0.02 0.00 0.00 0.00 0.02 0.01 0.00 0.00 0.00 0.00 0.00 0.01 0.02 0.00 0.00 0.00 0.00 0.00 0.00 0.00 0.00 0.00 0.00 0.00 0.00 0.00 0.00
1.09 0.65 0.51 0.38 0.34 0.30 0.26 0.27 0.30 0.26 0.21 0.18 0.14 0.11 0.12 0.13 0.16 0.16 0.10 0.06 0.07 0.09 0.04 0.01 0.01 0.01 0.00 0.00 0.00 0.00 0.00 0.00 0.01 0.01 0.01 0.03 0.00 0.00 0.01 0.00 0.00 0.00 0.00 0.00 0.00 0.00 0.00
1.20 0.84 0.59 0.50 0.41 0.43 0.42 0.39 0.33 0.26 0.22 0.18 0.16 0.14 0.14 0.12 0.16 0.16 0.06 0.05 0.03 0.11 0.16 0.03 0.01 0.00 0.00 0.00 0.00 0.00 0.00 0.01 0.02 0.04 0.05 0.04 0.04 0.00 0.00 0.00 0.00 0.02 0.02 0.00 0.00 0.00 0.00
1.47 1.05 0.66 0.55 0.48 0.40 0.40 0.43 0.40 0.38 0.32 0.23 0.18 0.17 0.18 0.17 0.20 0.12 0.02 0.02 0.01 0.07 0.22 0.03 0.00 0.00 0.00 0.01 0.00 0.00 0.00 0.00 0.05 0.11 0.06 0.09 0.03 0.00 0.00 0.00 0.01 0.01 0.01 0.00 0.00 0.00 0.02
1.61 1.40 0.94 0.62 0.55 0.50 0.44 0.43 0.40 0.37 0.33 0.30 0.26 0.25 0.28 0.42 0.36 0.10 0.05 0.02 0.07 0.25 0.43 0.04 0.02 0.03 0.04 0.07 0.01 0.00 0.00 0.00 0.07 0.09 0.09 0.21 0.04 0.02 0.03 0.02 0.01 0.06 0.00 0.00 0.02 0.08 0.10
1.72 1.36 1.04 0.69 0.59 0.59 0.51 0.45 0.37 0.38 0.41 0.45 0.39 0.37 0.49 0.64 0.44 0.26 0.07 0.02 0.23 0.48 0.81 0.09 0.11 0.05 0.07 0.05 0.01 0.06 0.00 0.00 0.02 0.07 0.20 0.33 0.21 0.24 0.22 0.05 0.02 0.07 0.00 0.01 0.01 0.02 0.08
2.47 1.58 1.22 0.90 0.64 0.57 0.54 0.50 0.44 0.39 0.36 0.46 0.55 0.51 0.66 0.74 0.45 0.10 0.03 0.18 0.54 1.21 0.82 0.07 0.14 0.10 0.14 0.09 0.01 0.02 0.01 0.00 0.00 0.05 0.06 0.10 0.03 0.06 0.05 0.00 0.01 0.02 0.02 0.03 0.05 0.09 0.22
3.85 2.86 2.05 1.40 0.98 0.86 0.67 0.59 0.54 0.49 0.44 0.48 0.70 0.82 0.90 0.58 0.46 0.22 0.40 0.94 1.65 1.38 0.28 0.05 0.08 0.25 0.16 0.20 0.22 0.05 0.02 0.00 0.00 0.05 0.07 0.07 0.06 0.05 0.03 0.12 0.05 0.05 0.04 0.14 0.31 0.24 0.12
5.54 4.23 3.08 2.50 1.69 1.19 1.06 0.83 0.76 0.79 0.74 0.77 0.94 1.25 1.34 0.80 0.36 0.46 1.45 2.70 2.19 0.73 0.13 0.01 0.11 0.23 0.24 0.17 0.24 0.05 0.02 0.02 0.02 0.03 0.06 0.06 0.19 0.07 0.05 0.27 0.12 0.05 0.05 0.10 0.37 0.22 0.19
6.41 5.79 4.54 3.57 2.79 2.20 1.72 1.31 1.26 1.28 1.55 1.81 2.55 2.62 2.20 1.07 0.62 1.29 3.07 3.74 1.68 0.43 0.03 0.00 0.01 0.10 0.11 0.11 0.45 0.54 0.44 0.13 0.10 0.07 0.22 0.16 0.19 0.08 0.04 0.05 0.07 0.09 0.08 0.05 0.23 0.29 0.39
5.75 5.47 5.59 5.17 3.75 2.82 2.53 2.16 1.77 1.99 2.43 3.46 4.66 4.42 2.46 0.78 1.21 3.27 5.04 2.90 0.64 0.06 0.01 0.01 0.02 0.02 0.13 0.08 0.23 0.85 0.41 0.17 0.04 0.02 0.11 0.21 0.26 0.10 0.12 0.08 0.05 0.04 0.04 0.11 0.29 0.79 0.62
4.70 4.74 4.91 5.12 4.99 3.74 3.10 2.73 2.62 2.78 3.59 5.36 8.42 7.90 3.55 1.29 3.64 6.71 5.12 1.50 0.30 0.01 0.03 0.06 0.07 0.08 0.06 0.07 0.14 0.37 0.44 0.40 0.09 0.05 0.06 0.13 0.30 0.18 0.18 0.26 0.06 0.04 0.08 0.14 0.25 0.37 0.71
4.02 3.90 4.13 4.31 4.63 4.22 4.19 3.36 3.12 3.74 4.81 8.61 10.90 8.58 4.45 2.66 7.42 6.65 2.57 0.59 0.13 0.03 0.03 0.07 0.05 0.08 0.20 0.21 0.14 0.13 0.22 0.34 0.23 0.25 0.11 0.10 0.21 0.17 0.04 0.10 0.04 0.05 0.09 0.14 0.47 0.58 0.67
3.89 3.84 3.60 3.42 3.89 4.05 3.96 4.92 4.35 4.73 6.26 7.94 10.16 8.23 7.54 4.86 5.46 3.67 1.26 0.42 0.16 0.10 0.05 0.08 0.10 0.08 0.14 0.20 0.28 0.25 0.16 0.14 0.17 0.22 0.30 0.18 0.47 0.61 0.36 0.17 0.11 0.13 0.06 0.13 0.28 0.36 0.68
3.83 3.52 3.42 3.15 3.31 3.78 3.78 4.47 5.16 5.13 6.14 8.75 10.83 10.43 11.72 10.51 4.02 1.87 0.86 0.64 0.38 0.13 0.12 0.10 0.12 0.12 0.16 0.20 0.16 0.31 0.27 0.18 0.07 0.13 0.22 0.30 0.45 0.61 0.83 0.63 0.54 0.29 0.08 0.07 0.17 0.60 0.83
3.54 3.34 3.28 2.94 3.07 3.41 3.63 4.01 4.93 5.18 6.48 10.99 13.74 9.58 6.15 6.67 4.11 1.45 0.74 0.62 0.46 0.39 0.24 0.20 0.31 0.20 0.14 0.38 0.43 0.46 0.30 0.37 0.26 0.21 0.35 0.57 0.58 0.23 0.14 0.17 0.66 0.51 0.18 0.15 0.29 0.22 0.50
3.13 3.11 3.12 2.82 2.83 3.48 3.81 3.92 4.73 5.66 8.36 13.62 13.45 7.35 4.15 2.37 1.45 1.45 1.29 0.84 0.48 0.33 0.45 0.51 0.41 0.24 0.32 0.60 0.43 0.42 0.52 0.77 0.57 0.45 0.60 0.91 0.91 0.32 0.17 0.09 0.42 0.45 0.15 0.11 0.14 0.17 0.33
3.02 2.97 3.11 2.68 2.41 2.93 3.50 3.84 4.48 6.06 10.61 15.42 10.64 4.79 3.15 2.64 1.77 2.31 2.04 0.77 0.40 0.40 0.65 0.47 0.42 0.55 0.80 0.50 0.36 0.59 0.75 0.87 0.67 0.51 0.73 1.03 1.29 1.43 1.02 0.20 0.83 1.38 0.77 0.50 0.36 0.45 0.31
2.59 2.87 2.95 2.70 2.57 2.63 3.03 3.19 3.78 5.66 9.54 10.23 6.59 3.32 4.05 3.96 1.97 1.55 0.68 0.40 0.37 0.49 0.78 0.79 0.68 0.89 0.76 0.42 0.72 1.22 1.39 1.11 0.78 0.58 0.45 0.94 1.24 2.00 1.77 1.22 2.77 1.33 0.65 0.68 0.89 0.67 0.78
2.53 2.59 2.89 2.57 2.57 2.68 3.01 3.24 3.59 4.34 6.90 8.92 6.24 4.22 4.40 3.89 2.09 1.39 0.96 0.78 0.79 0.90 1.34 1.58 1.19 0.86 0.75 1.30 2.82 3.42 2.56 1.91 1.21 0.67 0.44 0.42 0.98 2.71 3.02 2.38 1.50 0.46 0.25 0.30 0.52 0.46 0.35
2.48 2.56 2.89 2.65 2.54 2.47 2.79 3.15 3.21 3.41 4.72 7.60 7.62 5.07 5.59 5.23 3.04 1.05 0.80 0.80 1.14 1.40 1.60 1.60 1.29 1.02 1.32 2.52 4.10 4.32 2.45 1.27 0.75 0.59 0.23 0.33 0.74 2.36 3.70 3.16 1.52 0.54 0.32 0.14 0.39 0.79 0.43
2.44 2.49 2.68 2.71 2.60 2.58 2.69 2.86 2.67 2.86 3.85 5.36 6.35 4.76 7.16 6.96 3.08 1.23 1.09 0.94 0.86 1.34 1.87 1.60 1.60 2.14 2.45 3.82 4.48 3.37 2.04 0.86 0.81 0.87 0.71 0.70 1.27 2.13 2.16 3.05 1.59 0.20 0.23 0.34 1.30 1.40 0.73
2.38 2.40 2.33 2.35 2.36 2.58 2.77 2.84 2.74 2.61 3.58 4.74 5.08 3.68 6.26 6.06 3.35 1.73 1.20 1.04 0.87 1.29 2.24 2.25 2.37 2.72 3.26 4.17 4.74 3.70 2.29 1.25 0.80 0.68 1.01 1.08 1.51 1.64 1.63 2.39 1.81 0.24 0.34 0.99 1.68 1.01 0.85
2.33 2.40 2.35 2.26 2.19 2.24 2.67 2.76 2.87 2.81 3.68 4.43 5.06 3.82 4.77 6.23 4.33 1.96 1.41 1.04 0.97 1.10 1.78 2.57 2.68 2.12 2.26 3.02 3.42 2.97 2.59 1.83 1.21 1.13 1.01 1.38 1.12 1.44 1.30 1.25 0.69 0.50 0.57 0.45 0.27 0.23 0.23

GFSGBSN_prec_precacc_348.txt.gz
Total_Precipitation_Accumulation
0.51 0.33 0.29 0.31 0.31 0.27 0.25 0.23 0.18 0.14 0.10 0.07 0.06 0.05 0.04 0.03 0.02 0.02 0.02 0.01 0.00 0.01 0.01 0.00 0.01 0.02 0.01 0.00 0.00 0.00 0.00 0.00 0.00 0.00 0.00 0.00 0.00 0.00 0.00 0.00 0.00 0.00 0.00 0.00 0.00 0.00 0.00
1.51 1.27 0.79 0.51 0.35 0.26 0.24 0.25 0.28 0.26 0.24 0.19 0.15 0.11 0.08 0.07 0.06 0.04 0.02 0.00 0.01 0.01 0.01 0.01 0.01 0.03 0.01 0.00 0.00 0.00 0.00 0.00 0.00 0.00 0.00 0.00 0.00 0.00 0.00 0.00 0.00 0.00 0.00 0.00 0.00 0.00 0.00
0.75 0.86 1.10 1.10 0.89 0.74 0.57 0.35 0.28 0.26 0.26 0.25 0.21 0.18 0.18 0.16 0.14 0.11 0.05 0.01 0.00 0.01 0.01 0.01 0.02 0.04 0.01 0.00 0.00 0.00 0.00 0.00 0.00 0.00 0.00 0.00 0.00 0.00 0.00 0.00 0.00 0.00 0.00 0.00 0.00 0.00 0.00
0.78 0.63 0.57 0.63 0.86 0.95 0.92 0.80 0.66 0.50 0.39 0.40 0.40 0.37 0.31 0.26 0.17 0.09 0.04 0.01 0.00 0.01 0.01 0.01 0.02 0.03 0.00 0.00 0.00 0.00 0.00 0.00 0.00 0.00 0.00 0.00 0.00 0.00 0.00 0.00 0.00 0.00 0.00 0.00 0.00 0.00 0.00
0.71 0.75 0.67 0.65 0.69 0.70 0.67 0.63 0.55 0.47 0.47 0.42 0.36 0.29 0.25 0.19 0.17 0.16 0.11 0.03 0.00 0.01 0.01 0.01 0.01 0.02 0.00 0.00 0.00 0.00 0.00 0.00 0.00 0.00 0.00 0.00 0.00 0.00 0.00 0.00 0.00 0.00 0.00 0.00 0.00 0.00 0.00
0.66 0.55 0.50 0.48 0.47 0.43 0.37 0.30 0.23 0.21 0.21 0.21 0.19 0.18 0.15 0.13 0.14 0.16 0.11 0.07 0.02 0.00 0.00 0.00 0.02 0.01 0.00 0.00 0.00 0.00 0.00 0.01 0.02 0.00 0.00 0.00 0.00 0.00 0.00 0.00 0.00 0.00 0.00 0.00 0.00 0.00 0.00
1.10 0.65 0.51 0.38 0.34 0.30 0.26 0.27 0.30 0.26 0.21 0.18 0.14 0.11 0.12 0.13 0.16 0.16 0.10 0.06 0.07 0.09 0.04 0.01 0.01 0.01 0.00 0.00 0.00 0.00 0.00 0.00 0.01 0.01 0.01 0.03 0.00 0.00 0.01 0.00 0.00 0.00 0.00 0.00 0.00 0.00 0.00
1.22 0.84 0.59 0.50 0.41 0.43 0.42 0.39 0.33 0.26 0.22 0.18 0.16 0.14 0.14 0.12 0.16 0.16 0.06 0.05 0.03 0.11 0.16 0.03 0.01 0.00 0.00 0.00 0.00 0.00 0.00 0.01 0.02 0.04 0.05 0.04 0.04 0.00 0.00 0.00 0.00 0.02 0.02 0.00 0.00 0.00 0.00
1.48 1.05 0.66 0.55 0.48 0.40 0.40 0.43 0.40 0.38 0.32 0.23 0.18 0.17 0.18 0.17 0.20 0.12 0.02 0.02 0.01 0.07 0.22 0.03 0.00 0.00 0.00 0.01 0.00 0.00 0.00 0.00 0.05 0.11 0.06 0.09 0.03 0.00 0.00 0.00 0.01 0.01 0.01 0.00 0.00 0.00 0.02
1.62 1.40 0.94 0.62 0.55 0.50 0.44 0.43 0.40 0.37 0.33 0.30 0.26 0.25 0.28 0.42 0.36 0.10 0.05 0.02 0.07 0.25 0.43 0.04 0.02 0.03 0.04 0.07 0.01 0.00 0.00 0.00 0.07 0.09 0.09 0.21 0.04 0.02 0.03 0.02 0.01 0.06 0.00 0.00 0.02 0.08 0.10
1.73 1.37 1.04 0.69 0.59 0.59 0.51 0.45 0.37 0.38 0.41 0.45 0.39 0.37 0.50 0.64 0.44 0.26 0.07 0.02 0.23 0.48 0.81 0.09 0.11 0.05 0.07 0.05 0.01 0.06 0.00 0.00 0.02 0.07 0.20 0.33 0.21 0.24 0.22 0.05 0.02 0.07 0.00 0.01 0.01 0.02 0.08
2.49 1.60 1.22 0.90 0.64 0.57 0.54 0.50 0.44 0.39 0.36 0.46 0.55 0.51 0.66 0.74 0.45 0.10 0.03 0.18 0.54 1.21 0.82 0.07 0.14 0.10 0.14 0.09 0.01 0.02 0.01 0.00 0.00 0.05 0.06 0.10 0.03 0.06 0.05 0.00 0.01 0.02 0.02 0.03 0.05 0.09 0.22
3.86 2.87 2.06 1.40 0.98 0.86 0.67 0.59 0.54 0.49 0.44 0.48 0.71 0.82 0.90 0.58 0.46 0.22 0.40 0.94 1.65 1.38 0.28 0.05 0.08 0.25 0.16 0.20 0.22 0.05 0.02 0.00 0.00 0.05 0.07 0.07 0.06 0.05 0.03 0.12 0.05 0.05 0.04 0.14 0.31 0.24 0.12
5.55 4.23 3.08 2.50 1.69 1.19 1.06 0.83 0.76 0.79 0.74 0.78 0.94 1.26 1.34 0.80 0.36 0.46 1.45 2.70 2.19 0.73 0.13 0.01 0.11 0.23 0.24 0.17 0.24 0.05 0.02 0.02 0.02 0.03 0.06 0.06 0.19 0.07 0.05 0.27 0.12 0.05 0.05 0.10 0.37 0.22 0.19
6.45 5.79 4.54 3.57 2.79 2.20 1.72 1.31 1.26 1.28 1.55 1.81 2.55 2.62 2.20 1.07 0.62 1.29 3.07 3.74 1.68 0.43 0.03 0.00 0.01 0.10 0.11 0.11 0.45 0.54 0.44 0.13 0.10 0.07 0.22 0.16 0.19 0.08 0.04 0.05 0.07 0.09 0.08 0.05 0.23 0.29 0.39
5.86 5.47 5.59 5.17 3.75 2.82 2.53 2.16 1.77 1.99 2.43 3.46 4.66 4.42 2.46 0.78 1.21 3.27 5.04 2.90 0.64 0.06 0.01 0.01 0.02 0.02 0.13 0.08 0.23 0.85 0.41 0.17 0.04 0.02 0.11 0.21 0.26 0.10 0.12 0.08 0.05 0.04 0.04 0.11 0.29 0.79 0.62
4.82 4.76 4.91 5.12 4.99 3.74 3.10 2.73 2.62 2.78 3.59 5.36 8.42 7.90 3.55 1.29 3.64 6.71 5.12 1.50 0.30 0.01 0.03 0.06 0.07 0.08 0.06 0.07 0.14 0.37 0.44 0.40 0.09 0.05 0.06 0.13 0.30 0.18 0.18 0.26 0.06 0.04 0.08 0.14 0.25 0.37 0.71
4.16 3.95 4.13 4.31 4.63 4.22 4.19 3.36 3.12 3.74 4.81 8.61 10.90 8.58 4.45 2.66 7.42 6.65 2.57 0.59 0.13 0.03 0.03 0.07 0.05 0.08 0.20 0.21 0.14 0.13 0.22 0.34 0.23 0.25 0.11 0.10 0.21 0.17 0.04 0.10 0.04 0.05 0.09 0.14 0.47 0.58 0.67
4.03 3.92 3.60 3.42 3.89 4.05 3.96 4.92 4.35 4.73 6.26 7.94 10.16 8.23 7.54 4.86 5.46 3.67 1.26 0.42 0.16 0.10 0.05 0.08 0.10 0.08 0.14 0.20 0.28 0.25 0.16 0.14 0.17 0.22 0.30 0.18 0.47 0.61 0.36 0.17 0.11 0.13 0.06 0.13 0.28 0.36 0.68
3.94 3.66 3.43 3.15 3.31 3.78 3.78 4.47 5.16 5.13 6.15 8.75 10.83 10.43 11.72 10.51 4.02 1.87 0.86 0.64 0.38 0.13 0.12 0.10 0.12 0.12 0.16 0.20 0.16 0.31 0.27 0.18 0.07 0.13 0.22 0.30 0.45 0.61 0.83 0.63 0.54 0.29 0.08 0.07 0.17 0.60 0.83
3.57 3.51 3.33 2.94 3.07 3.41 3.63 4.01 4.93 5.18 6.48 10.99 13.74 9.58 6.15 6.67 4.11 1.45 0.74 0.62 0.46 0.39 0.24 0.20 0.31 0.20 0.14 0.38 0.43 0.46 0.30 0.37 0.26 0.21 0.35 0.57 0.58 0.23 0.14 0.17 0.66 0.51 0.18 0.15 0.29 0.22 0.50
3.15 3.18 3.22 2.83 2.83 3.48 3.81 3.92 4.73 5.66 8.37 13.62 13.45 7.35 4.15 2.37 1.45 1.45 1.29 0.84 0.48 0.33 0.45 0.51 0.41 0.24 0.32 0.60 0.43 0.42 0.52 0.77 0.57 0.45 0.60 0.91 0.91 0.32 0.17 0.09 0.42 0.45 0.15 0.11 0.14 0.17 0.33
3.03 2.99 3.22 2.70 2.41 2.93 3.50 3.84 4.48 6.06 10.62 15.42 10.64 4.79 3.15 2.64 1.77 2.31 2.04 0.77 0.40 0.40 0.65 0.47 0.42 0.55 0.80 0.50 0.36 0.59 0.75 0.87 0.67 0.51 0.73 1.03 1.29 1.43 1.02 0.20 0.83 1.38 0.77 0.50 0.36 0.45 0.31
2.60 2.88 3.01 2.74 2.57 2.63 3.03 3.19 3.78 5.66 9.54 10.23 6.59 3.32 4.05 3.96 1.97 1.55 0.68 0.40 0.37 0.49 0.78 0.79 0.68 0.89 0.76 0.42 0.72 1.22 1.39 1.11 0.78 0.58 0.45 0.94 1.24 2.00 1.77 1.22 2.77 1.33 0.65 0.68 0.89 0.67 0.78
2.54 2.60 2.91 2.62 2.57 2.68 3.01 3.24 3.59 4.34 6.90 8.92 6.24 4.22 4.40 3.89 2.09 1.39 0.96 0.78 0.79 0.90 1.34 1.58 1.19 0.86 0.75 1.30 2.82 3.42 2.56 1.91 1.21 0.67 0.44 0.42 0.98 2.71 3.02 2.38 1.50 0.46 0.25 0.30 0.52 0.46 0.35
2.49 2.58 2.91 2.68 2.55 2.47 2.79 3.15 3.21 3.42 4.72 7.60 7.63 5.07 5.59 5.23 3.04 1.05 0.80 0.80 1.14 1.40 1.60 1.60 1.29 1.02 1.32 2.52 4.10 4.32 2.45 1.27 0.75 0.59 0.23 0.33 0.74 2.36 3.70 3.16 1.52 0.54 0.32 0.14 0.39 0.79 0.43
2.45 2.50 2.70 2.74 2.62 2.58 2.69 2.86 2.67 2.86 3.85 5.37 6.35 4.76 7.16 6.96 3.08 1.23 1.09 0.94 0.86 1.34 1.87 1.60 1.60 2.14 2.45 3.82 4.48 3.37 2.04 0.86 0.81 0.87 0.71 0.70 1.27 2.13 2.16 3.05 1.59 0.20 0.23 0.34 1.30 1.40 0.73
2.39 2.40 2.34 2.38 2.37 2.58 2.77 2.84 2.74 2.61 3.59 4.75 5.08 3.68 6.26 6.06 3.35 1.73 1.20 1.04 0.87 1.29 2.24 2.25 2.37 2.72 3.26 4.17 4.74 3.70 2.29 1.25 0.80 0.68 1.01 1.08 1.51 1.64 1.63 2.39 1.81 0.24 0.34 0.99 1.68 1.01 0.85
2.34 2.41 2.36 2.28 2.21 2.24 2.67 2.76 2.87 2.81 3.69 4.43 5.06 3.82 4.77 6.23 4.33 1.96 1.41 1.04 0.97 1.10 1.78 2.57 2.68 2.12 2.26 3.02 3.42 2.97 2.59 1.83 1.21 1.13 1.01 1.38 1.12 1.44 1.30 1.25 0.69 0.50 0.57 0.45 0.27 0.23 0.23